Tracking 31027 objects as of 19-Jul-2025
HD Live streaming from Space Station
objects crossing your sky now

STARLINK-30172

Track STARLINK-30172 now!
10-day predictions
STARLINK-30172 is classified as:


NORAD ID: 57410
Int'l Code: 2023-102G
Perigee: 565.6 km
Apogee: 566.9 km
Inclination: 43.0 °
Period: 95.8 minutes
Semi major axis: 6937 km
RCS: Unknown
Launch date: July 20, 2023
Source: United States (US)
Launch site: AIR FORCE WESTERN TEST RANGE (AFWTR)
Your satellite tracking list
COSMOS 2251 DEB
Track 1 satellite(s)




NASA's NSSDC Master Catalog

Two Line Element Set (TLE):
1 57410U 23102G   25199.40251968 -.00000132  00000-0  52954-5 0  9993
2 57410  43.0049  81.9020 0000943 271.8263  88.2471 15.02536415110996
Source of the keplerian elements: AFSPC